Regional Weather Roundup
Issued by NWS

Home | Current Version | Previous Version | Text Only | Print | Product List | Glossary On
Versions: 1 2 3 4 5 6 7 8 9 10 11 12 13 14 15 16 17 18 19 20 21 22 23 24 25 26 27
000
ASUS46 KSEW 201010
RWRWA

WASHINGTON REGIONAL WEATHER ROUNDUP
NATIONAL WEATHER SERVICE SEATTLE WA
200 AM PST MON NOV 20 2017

NOTE:"FAIR" INDICATES FEW OR NO CLOUDS BELOW 12,000 FEET WITH NO
SIGNIFICANT WEATHER AND/OR OBSTRUCTIONS TO VISIBILITY.

WAZ507-509-555>559-201100-
SEATTLE, TACOMA, EVERETT, AND VICINITY

CITY           SKY/WX    TMP DP  RH WIND       PRES   REMARKS
EVERETT        CLOUDY    45  44  97 SE13      29.58F
BOEING FIELD   CLOUDY    45  45 100 SE3       29.59F
RENTON         CLOUDY    46  46 100 CALM      29.59F
SEATAC AIRPORT CLOUDY    46  44  93 SE5       29.59F
JBLM-MCCHORD   CLOUDY    44  44 100 CALM      29.58F
PUYALLUP       CLOUDY    50  46  87 S5        29.58F
BREMERTON      LGT RAIN  45  45 100 S12       29.57F
JBLM-FT LEWIS  CLOUDY    48  48 100 S6        29.57F
TACOMA NARROWS CLOUDY    46  46 100 SW6       29.58F
$$

WAZ001-503-506-510-514-515-201100-
NORTH INTERIOR

CITY           SKY/WX    TMP DP  RH WIND       PRES   REMARKS
BELLINGHAM     LGT RAIN  41  40  96 N6        29.55F
FRIDAY HARBOR  LGT RAIN  47  32  56 SE14      29.54F
EASTSOUND      LGT RAIN  46  45  93 S9G20     29.53F
PORT ANGELES   RAIN      45  45 100 W7        29.53R FOG
EDIZ HOOK      LGT RAIN  46  44  93 NW14      29.52S
PORT TOWNSEND  CLOUDY    46  45  93 S5        29.53F
NAS WHIDBEY    CLOUDY    50  42  74 SE15G23   29.57F
ARLINGTON      CLOUDY    49  45  86 SE23      29.57F
BURLINGTON     CLOUDY    48  45  87 SE9       29.56F
$$

WAZ020-022-039-040-504-511-512-201100-
SOUTHWEST INTERIOR

CITY           SKY/WX    TMP DP  RH WIND       PRES   REMARKS
SHELTON        LGT RAIN  43  41  93 CALM      29.55F FOG
OLYMPIA        LGT RAIN  47  46  97 SW13      29.59S
CHEHALIS       CLOUDY    46  46 100 S13G20    29.61F FOG
KELSO          LGT RAIN  49  46  90 SE8G17    29.64F
VANCOUVER      RAIN      49  48  97 E10       29.67F FOG
SCAPPOOSE, OR  RAIN      48  48 100 SE10      29.66F FOG
PORTLAND, OR   RAIN      46  46 100 E12       29.69F FOG
$$

WAZ021-516-517-201100-
WASHINGTON COAST

CITY           SKY/WX    TMP DP  RH WIND       PRES   REMARKS
FORKS          NOT AVBL
HOQUIAM        LGT RAIN  53  52  96 S24       29.54S FOG
ASTORIA, OR    CLOUDY    52  50  93 S25G37    29.56F
$$

WAZ019-023-024-040-567>569-201100-
CASCADE MOUNTAINS AND COLUMBIA GORGE

CITY           SKY/WX    TMP DP  RH WIND       PRES   REMARKS
STAMPEDE PASS  FRZ RAIN  33  32  96 NE5       29.60S FOG
TROUTDALE, OR  RAIN      46  45  96 E7        29.70F FOG
HOOD RIVER, OR RAIN      37  37 100 E3        29.72F
THE DALLES, OR LGT RAIN  40  38  93 N5        29.74S FOG
$$

WAZ026-027-041>044-520-521-201100-
EAST SLOPES

CITY           SKY/WX    TMP DP  RH WIND       PRES   REMARKS
OMAK           CLOUDY    39  33  79 CALM      29.65R
WENATCHEE      MOCLDY    34  34 100 SW6       29.65S
ELLENSBURG     LGT RAIN  34  32  92 NW5       29.64F FOG
YAKIMA         CLOUDY    40  36  86 CALM      29.67S
SUNNYSIDE ARPT PTSUNNY   42  39  88 E5        29.68S
YAKIMA TC      PTSUNNY   36  34  93 CALM      29.63F
$$

WAZ028-034-035-201100-
COLUMBIA BASIN

CITY           SKY/WX    TMP DP  RH WIND       PRES   REMARKS
EPHRATA        CLOUDY    39  32  76 S5        29.64S
MOSES LAKE     CLOUDY    40  37  89 S10       29.64F
PASCO          CLOUDY    45  36  70 SE7       29.71F
RICHLAND ARPT  CLOUDY    48  35  61 S5        29.70F
HERMISTON, OR  CLOUDY    42  34  73 NW3       29.71S
$$

WAZ036>038-201100-
NORTHEAST WASHINGTON

CITY           SKY/WX    TMP DP  RH WIND       PRES   REMARKS
SPOKANE GEIGER FLURRIES  40  37  89 S14G28    29.68F
SPOKANE FELTS  LGT RAIN  42  37  82 S7        29.71F
FAIRCHILD AFB  LGT RAIN  39  39  99 S16       29.66F
COEURDALENE,ID LGT RAIN  38  36  92 S9        29.73F
DEER PARK      MIX PCPN  37  37 100 SE7       29.70F
$$

WAZ029>033-201100-
SOUTHEAST WASHINGTON

CITY           SKY/WX    TMP DP  RH WIND       PRES   REMARKS
PULLMAN        LGT RAIN  42  36  79 SE7       29.78R
LEWISTON, ID   LGT RAIN  46  37  71 NE8       29.76S
WALLA WALLA    CLOUDY    48  40  73 NE5       29.70F
PENDLETON, OR  CLOUDY    58  29  33 S9        29.69F
$$




USA.gov is the U.S. government's official web portal to all federal, state and local government web resources and services.